| time (UTC) | temp F | wind direction | speed MPH | gust MPH | rain 1hr in | rain 24hr in | rain mn in | humidity % | barometer mb |
| 20260831032539 | 62 | 42 | 11.0 | 18.0 | 0.00 | 0.00 | 0.00 | 84 | 1014.8 |
| 20260831032038 | 62 | 35 | 13.0 | 18.0 | 0.00 | 0.00 | 0.00 | 83 | 1014.8 |
| 20260831031537 | 62 | 49 | 12.0 | 17.0 | 0.00 | 0.00 | 0.00 | 83 | 1014.9 |
| 20260831031036 | 63 | 36 | 11.0 | 17.0 | 0.00 | 0.00 | 0.00 | 82 | 1014.9 |
| 20260831030535 | 63 | 42 | 11.0 | 17.0 | 0.00 | 0.00 | 0.00 | 81 | 1014.9 |
| 20260831030034 | 63 | 57 | 14.0 | 17.0 | 0.00 | 0.00 | 0.00 | 81 | 1014.8 |
| 20260831024531 | 63 | 43 | 13.0 | 22.0 | 0.00 | 0.00 | 0.00 | 79 | 1014.9 |
| 20260831024030 | 63 | 42 | 14.0 | 22.0 | 0.00 | 0.00 | 0.00 | 80 | 1014.9 |
| 20260831023028 | 63 | 51 | 15.0 | 18.0 | 0.00 | 0.00 | 0.00 | 80 | 1015.0 |
| 20260831022527 | 64 | 35 | 16.0 | 18.0 | 0.00 | 0.00 | 0.00 | 79 | 1015.0 |
| 20260831022026 | 64 | 56 | 13.0 | 20.0 | 0.00 | 0.00 | 0.00 | 78 | 1015.1 |
| 20260831021525 | 64 | 56 | 15.0 | 20.0 | 0.00 | 0.00 | 0.00 | 79 | 1015.1 |
| 20260831021024 | 64 | 1 | 16.0 | 20.0 | 0.00 | 0.00 | 0.00 | 78 | 1015.3 |
| 20260831015521 | 64 | 51 | 15.0 | 22.0 | 0.00 | 0.00 | 0.00 | 78 | 1015.4 |
| 20260831015020 | 64 | 54 | 16.0 | 23.0 | 0.00 | 0.00 | 0.00 | 78 | 1015.4 |
| 20260831014519 | 64 | 49 | 16.0 | 23.0 | 0.00 | 0.00 | 0.00 | 78 | 1015.4 |
| 20260831014018 | 64 | 49 | 17.0 | 23.0 | 0.00 | 0.00 | 0.00 | 78 | 1015.6 |
| 20260831013016 | 64 | 51 | 17.0 | 25.0 | 0.00 | 0.00 | 0.00 | 78 | 1015.7 |
| 20260831012515 | 64 | 89 | 18.0 | 25.0 | 0.00 | 0.00 | 0.00 | 78 | 1015.8 |
| 20260831012014 | 64 | 51 | 19.0 | 25.0 | 0.00 | 0.00 | 0.00 | 78 | 1015.8 |
| 20260831011513 | 64 | 56 | 17.0 | 25.0 | 0.00 | 0.00 | 0.00 | 77 | 1015.9 |
| 20260831011012 | 64 | 47 | 20.0 | 23.0 | 0.00 | 0.00 | 0.00 | 76 | 1015.9 |
| 20260831010511 | 64 | 70 | 17.0 | 22.0 | 0.00 | 0.00 | 0.00 | 75 | 1016.0 |
| 20260831010010 | 64 | 58 | 17.0 | 22.0 | 0.00 | 0.00 | 0.00 | 75 | 1016.1 |
| 20260831005008 | 65 | 53 | 16.0 | 22.0 | 0.00 | 0.00 | 0.00 | 76 | 1016.3 |
| 20260831004507 | 64 | 47 | 18.0 | 22.0 | 0.00 | 0.00 | 0.00 | 76 | 1016.4 |
| 20260831004006 | 64 | 64 | 17.0 | 21.0 | 0.00 | 0.00 | 0.00 | 76 | 1016.5 |
| 20260831003004 | 65 | 65 | 16.0 | 25.0 | 0.00 | 0.00 | 0.00 | 77 | 1016.6 |
| 20260831002504 | 64 | 50 | 17.0 | 25.0 | 0.00 | 0.00 | 0.00 | 77 | 1016.6 |
| 20260831002002 | 64 | 77 | 16.0 | 25.0 | 0.00 | 0.00 | 0.00 | 77 | 1016.6 |
| 20260831001501 | 64 | 60 | 19.0 | 23.0 | 0.00 | 0.00 | 0.00 | 77 | 1016.6 |
| 20260831001000 | 64 | 71 | 18.0 | 23.0 | 0.00 | 0.00 | 0.00 | 77 | 1016.6 |
| 20260831000459 | 65 | 37 | 18.0 | 24.0 | 0.00 | 0.00 | 0.00 | 77 | 1016.7 |
| 20260830235958 | 64 | 53 | 20.0 | 24.0 | 0.00 | 0.00 | 0.00 | 77 | 1016.6 |
| 20260830235457 | 65 | 21 | 18.0 | 24.0 | 0.00 | 0.00 | 0.00 | 78 | 1016.8 |
| 20260830234956 | 64 | 39 | 19.0 | 24.0 | 0.00 | 0.00 | 0.00 | 77 | 1016.8 |
| 20260830233955 | 65 | 57 | 19.0 | 23.0 | 0.00 | 0.00 | 0.00 | 78 | 1016.9 |
| 20260830233453 | 65 | 40 | 17.0 | 23.0 | 0.00 | 0.00 | 0.00 | 78 | 1016.9 |
| 20260830232451 | 64 | 46 | 17.0 | 22.0 | 0.00 | 0.00 | 0.00 | 78 | 1017.0 |
| 20260830231449 | 65 | 56 | 17.0 | 20.0 | 0.00 | 0.00 | 0.00 | 79 | 1017.1 |
| 20260830225947 | 65 | 61 | 15.0 | 22.0 | 0.00 | 0.00 | 0.00 | 80 | 1017.4 |
| 20260830225445 | 65 | 43 | 15.0 | 22.0 | 0.00 | 0.00 | 0.00 | 80 | 1017.5 |
| 20260830224944 | 65 | 35 | 14.0 | 21.0 | 0.00 | 0.00 | 0.00 | 81 | 1017.6 |
| 20260830224443 | 65 | 44 | 16.0 | 21.0 | 0.00 | 0.00 | 0.00 | 80 | 1017.6 |
| 20260830223441 | 65 | 43 | 18.0 | 20.0 | 0.00 | 0.00 | 0.00 | 81 | 1017.7 |
| 20260830222940 | 65 | 37 | 16.0 | 20.0 | 0.00 | 0.00 | 0.00 | 81 | 1017.8 |
| 20260830221938 | 65 | 39 | 16.0 | 20.0 | 0.00 | 0.00 | 0.00 | 80 | 1017.9 |
| 20260830221437 | 65 | 36 | 15.0 | 20.0 | 0.00 | 0.00 | 0.00 | 80 | 1017.9 |
| 20260830220936 | 65 | 25 | 14.0 | 20.0 | 0.00 | 0.00 | 0.00 | 80 | 1018.0 |
| 20260830215934 | 65 | 37 | 16.0 | 21.0 | 0.00 | 0.00 | 0.00 | 80 | 1018.1 |
| 20260830214932 | 65 | 43 | 15.0 | 19.0 | 0.00 | 0.00 | 0.00 | 80 | 1018.2 |
| 20260830213930 | 65 | 47 | 16.0 | 21.0 | 0.00 | 0.00 | 0.00 | 80 | 1018.2 |
| 20260830212928 | 65 | 29 | 15.0 | 19.0 | 0.00 | 0.00 | 0.00 | 80 | 1018.3 |
| 20260830212428 | 65 | 25 | 15.0 | 18.0 | 0.00 | 0.00 | 0.00 | 80 | 1018.3 |
| 20260830211926 | 65 | 16 | 13.0 | 17.0 | 0.00 | 0.00 | 0.00 | 80 | 1018.4 |
| 20260830211425 | 65 | 40 | 13.0 | 17.0 | 0.00 | 0.00 | 0.00 | 80 | 1018.4 |
| 20260830210924 | 64 | 9 | 13.0 | 16.0 | 0.00 | 0.00 | 0.00 | 80 | 1018.5 |
| 20260830210423 | 65 | 23 | 12.0 | 15.0 | 0.00 | 0.00 | 0.00 | 81 | 1018.5 |
| 20260830205922 | 65 | 351 | 10.0 | 15.0 | 0.00 | 0.00 | 0.00 | 81 | 1018.6 |
| 20260830205421 | 65 | 29 | 12.0 | 15.0 | 0.00 | 0.00 | 0.00 | 81 | 1018.6 |
| 20260830204920 | 65 | 16 | 10.0 | 15.0 | 0.00 | 0.00 | 0.00 | 81 | 1018.6 |
| 20260830204420 | 64 | 14 | 11.0 | 15.0 | 0.00 | 0.00 | 0.00 | 82 | 1018.7 |
| 20260830203918 | 64 | 7 | 11.0 | 15.0 | 0.00 | 0.00 | 0.00 | 82 | 1018.7 |
| 20260830203417 | 64 | 11 | 11.0 | 15.0 | 0.00 | 0.00 | 0.00 | 83 | 1018.7 |
| 20260830202916 | 64 | 26 | 11.0 | 15.0 | 0.00 | 0.00 | 0.00 | 83 | 1018.8 |
| 20260830201914 | 64 | 14 | 12.0 | 16.0 | 0.00 | 0.00 | 0.00 | 83 | 1018.9 |
| 20260830201413 | 64 | 25 | 11.0 | 16.0 | 0.00 | 0.00 | 0.00 | 83 | 1018.9 |
| 20260830200912 | 64 | 344 | 12.0 | 15.0 | 0.00 | 0.00 | 0.00 | 83 | 1018.9 |
| 20260830195910 | 64 | 29 | 12.0 | 15.0 | 0.00 | 0.00 | 0.00 | 83 | 1018.9 |
| 20260830194908 | 64 | 28 | 12.0 | 15.0 | 0.00 | 0.00 | 0.00 | 83 | 1019.0 |
| 20260830194407 | 64 | 19 | 11.0 | 17.0 | 0.00 | 0.00 | 0.00 | 82 | 1019.0 |
| 20260830193405 | 64 | 43 | 12.0 | 17.0 | 0.00 | 0.00 | 0.00 | 81 | 1019.1 |
| 20260830192403 | 64 | 7 | 11.0 | 14.0 | 0.00 | 0.00 | 0.00 | 81 | 1019.2 |
| 20260830191902 | 64 | 30 | 11.0 | 15.0 | 0.00 | 0.00 | 0.00 | 82 | 1019.3 |
| 20260830190900 | 64 | 33 | 10.0 | 15.0 | 0.00 | 0.00 | 0.00 | 82 | 1019.3 |
| 20260830190359 | 64 | 16 | 12.0 | 14.0 | 0.00 | 0.00 | 0.00 | 81 | 1019.4 |
| 20260830184856 | 63 | 15 | 11.0 | 14.0 | 0.00 | 0.00 | 0.00 | 80 | 1019.4 |
| 20260830184355 | 63 | 341 | 11.0 | 13.0 | 0.00 | 0.00 | 0.00 | 80 | 1019.4 |
| 20260830183353 | 63 | 22 | 9.0 | 12.0 | 0.00 | 0.00 | 0.00 | 82 | 1019.5 |
| 20260830182351 | 62 | 15 | 9.0 | 10.0 | 0.00 | 0.00 | 0.00 | 84 | 1019.5 |
| 20260830181349 | 62 | 285 | 4.0 | 8.0 | 0.00 | 0.00 | 0.00 | 87 | 1019.6 |
| 20260830180848 | 62 | 305 | 6.0 | 8.0 | 0.00 | 0.00 | 0.00 | 87 | 1019.7 |
| 20260830180348 | 62 | 282 | 5.0 | 7.0 | 0.00 | 0.00 | 0.00 | 86 | 1019.7 |
| 20260830175846 | 62 | 330 | 5.0 | 7.0 | 0.00 | 0.00 | 0.00 | 86 | 1019.6 |
| 20260830175345 | 62 | 319 | 5.0 | 6.0 | 0.00 | 0.00 | 0.00 | 85 | 1019.6 |
| 20260830174343 | 62 | 326 | 4.0 | 6.0 | 0.00 | 0.00 | 0.00 | 1019.7 | |
| 20260830173843 | 62 | 334 | 5.0 | 6.0 | 0.00 | 0.00 | 0.00 | 87 | 1019.6 |
| 20260830173341 | 61 | 313 | 5.0 | 6.0 | 0.00 | 0.00 | 0.00 | 1019.7 | |
| 20260830172340 | 61 | 309 | 4.0 | 4.0 | 0.00 | 0.00 | 0.00 | 100 | 1019.7 |
| 20260830171838 | 61 | 291 | 2.0 | 4.0 | 0.00 | 0.00 | 0.00 | 1019.8 | |
| 20260830171337 | 60 | 320 | 2.0 | 4.0 | 0.00 | 0.00 | 0.00 | 89 | 1019.7 |
| 20260830170836 | 60 | 322 | 2.0 | 3.0 | 0.00 | 0.00 | 0.00 | 90 | 1019.8 |
| 20260830165334 | 59 | 301 | 1.0 | 3.0 | 0.00 | 0.00 | 0.00 | 92 | 1019.7 |
| 20260830164832 | 59 | 0 | 2.0 | 5.0 | 0.00 | 0.00 | 0.00 | 92 | 1019.7 |
| 20260830164333 | 58 | 347 | 0.0 | 5.0 | 0.00 | 0.00 | 0.00 | 93 | 1019.7 |
| 20260830163331 | 58 | 253 | 3.0 | 3.0 | 0.00 | 0.00 | 0.00 | 93 | 1019.8 |
| 20260830161325 | 57 | 112 | 2.0 | 4.0 | 0.00 | 0.00 | 0.00 | 94 | 1019.8 |
| 20260830160824 | 57 | 100 | 1.0 | 4.0 | 0.00 | 0.00 | 0.00 | 94 | 1019.8 |
| 20260830160323 | 57 | 133 | 1.0 | 4.0 | 0.00 | 0.00 | 0.00 | 94 | 1020.0 |
| 20260830155822 | 56 | 123 | 1.0 | 4.0 | 0.00 | 0.00 | 0.00 | 94 | 1019.9 |
| 20260830155321 | 56 | 114 | 1.0 | 4.0 | 0.00 | 0.00 | 0.00 | 95 | 1020.0 |
| 20260830154820 | 56 | 131 | 2.0 | 4.0 | 0.00 | 0.00 | 0.00 | 95 | 1020.0 |
| 20260830154319 | 55 | 113 | 2.0 | 5.0 | 0.00 | 0.00 | 0.00 | 95 | 1020.0 |
| 20260830153818 | 55 | 127 | 2.0 | 5.0 | 0.00 | 0.00 | 0.00 | 95 | 1020.0 |
| 20260830153317 | 55 | 137 | 2.0 | 5.0 | 0.00 | 0.00 | 0.00 | 95 | 1020.0 |
| 20260830152816 | 54 | 130 | 1.0 | 4.0 | 0.00 | 0.00 | 0.00 | 95 | 1019.9 |
| 20260830152315 | 54 | 120 | 3.0 | 6.0 | 0.00 | 0.00 | 0.00 | 95 | 1019.9 |
| 20260830151814 | 54 | 120 | 4.0 | 6.0 | 0.00 | 0.00 | 0.00 | 95 | 1019.9 |
| 20260830150812 | 53 | 121 | 5.0 | 6.0 | 0.00 | 0.00 | 0.00 | 95 | 1019.9 |
| 20260830150311 | 53 | 127 | 4.0 | 5.0 | 0.00 | 0.00 | 0.00 | 95 | 1019.9 |
| 20260830145810 | 53 | 119 | 2.0 | 3.0 | 0.00 | 0.00 | 0.00 | 95 | 1019.9 |
| 20260830144900 | 53 | 131 | 1.0 | 9.0 | 0.00 | 0.00 | 0.00 | 95 | 1019.9 |
| 20260830144808 | 53 | 131 | 1.0 | 9.0 | 0.00 | 0.00 | 0.00 | 95 | 1019.9 |
| 20260830143806 | 53 | 133 | 5.0 | 9.0 | 0.00 | 0.00 | 0.00 | 95 | 1019.9 |
| 20260830143305 | 53 | 142 | 6.0 | 8.0 | 0.00 | 0.00 | 0.00 | 95 | 1019.9 |
| 20260830142804 | 52 | 133 | 4.0 | 7.0 | 0.00 | 0.00 | 0.00 | 95 | 1019.8 |
| 20260830142305 | 52 | 131 | 5.0 | 6.0 | 0.00 | 0.00 | 0.00 | 95 | 1019.9 |
| 20260830141802 | 52 | 130 | 4.0 | 6.0 | 0.00 | 0.00 | 0.00 | 95 | 1019.9 |
| 20260830141301 | 51 | 131 | 3.0 | 6.0 | 0.00 | 0.00 | 0.00 | 95 | 1019.9 |
| 20260830135758 | 51 | 140 | 5.0 | 6.0 | 0.00 | 0.00 | 0.00 | 95 | 1019.9 |
| 20260830133754 | 52 | 137 | 3.0 | 5.0 | 0.00 | 0.00 | 0.00 | 95 | 1019.9 |
| 20260830133253 | 52 | 134 | 4.0 | 5.0 | 0.00 | 0.00 | 0.00 | 95 | 1019.9 |
| 20260830132752 | 52 | 134 | 3.0 | 5.0 | 0.00 | 0.00 | 0.00 | 95 | 1019.9 |
| 20260830132251 | 52 | 134 | 4.0 | 5.0 | 0.00 | 0.00 | 0.00 | 95 | 1019.8 |
| 20260830131249 | 51 | 135 | 3.0 | 4.0 | 0.00 | 0.00 | 0.00 | 95 | 1019.8 |
| 20260830130929 | 52 | 155 | 2.0 | 4.0 | 0.00 | 0.00 | 0.00 | 94 | 1019.7 |
| 20260830130927 | 52 | 137 | 2.0 | 5.0 | 0.00 | 0.00 | 0.00 | 94 | 1019.6 |
| 20260830130748 | 51 | 135 | 3.0 | 7.0 | 0.00 | 0.00 | 0.00 | 95 | 1019.7 |
| 20260830130247 | 51 | 137 | 3.0 | 7.0 | 0.00 | 0.00 | 0.00 | 95 | 1019.7 |
| 20260830125746 | 51 | 137 | 4.0 | 7.0 | 0.00 | 0.00 | 0.00 | 95 | 1019.7 |
| 20260830125245 | 51 | 137 | 4.0 | 5.0 | 0.00 | 0.00 | 0.00 | 95 | 1019.8 |
| 20260830123742 | 51 | 135 | 3.0 | 5.0 | 0.00 | 0.00 | 0.00 | 94 | 1019.7 |
| 20260830123241 | 51 | 141 | 4.0 | 4.0 | 0.00 | 0.00 | 0.00 | 94 | 1019.7 |
| 20260830122239 | 52 | 140 | 3.0 | 4.0 | 0.00 | 0.00 | 0.00 | 94 | 1019.7 |
| 20260830121237 | 52 | 155 | 2.0 | 4.0 | 0.00 | 0.00 | 0.00 | 94 | 1019.7 |
| 20260830120736 | 52 | 135 | 2.0 | 5.0 | 0.00 | 0.00 | 0.00 | 94 | 1019.6 |
| 20260830120235 | 52 | 137 | 2.0 | 5.0 | 0.00 | 0.00 | 0.00 | 94 | 1019.6 |
| 20260830115734 | 52 | 144 | 2.0 | 5.0 | 0.00 | 0.00 | 0.00 | 94 | 1019.6 |
| 20260830115233 | 52 | 138 | 2.0 | 5.0 | 0.00 | 0.00 | 0.00 | 94 | 1019.6 |
| 20260830113730 | 52 | 141 | 1.0 | 1.0 | 0.00 | 0.00 | 0.00 | 94 | 1019.5 |
| 20260830112728 | 53 | 145 | 2.0 | 6.0 | 0.00 | 0.00 | 0.00 | 94 | 1019.5 |
| 20260830111226 | 53 | 147 | 3.0 | 7.0 | 0.00 | 0.00 | 0.00 | 94 | 1019.5 |
| 20260830105221 | 52 | 137 | 4.0 | 6.0 | 0.00 | 0.00 | 0.00 | 94 | 1019.6 |
| 20260830104720 | 52 | 134 | 4.0 | 5.0 | 0.00 | 0.00 | 0.00 | 93 | 1019.7 |
| 20260830104219 | 53 | 134 | 3.0 | 4.0 | 0.00 | 0.00 | 0.00 | 93 | 1019.7 |
| 20260830103718 | 53 | 134 | 3.0 | 4.0 | 0.00 | 0.00 | 0.00 | 93 | 1019.6 |
| 20260830103217 | 53 | 134 | 2.0 | 4.0 | 0.00 | 0.00 | 0.00 | 93 | 1019.6 |
| 20260830102715 | 53 | 133 | 2.0 | 4.0 | 0.00 | 0.00 | 0.00 | 93 | 1019.7 |
| 20260830102214 | 53 | 133 | 2.0 | 6.0 | 0.00 | 0.00 | 0.00 | 93 | 1019.7 |
| 20260830101713 | 53 | 133 | 3.0 | 6.0 | 0.00 | 0.00 | 0.00 | 93 | 1019.7 |
| 20260830101213 | 53 | 133 | 3.0 | 6.0 | 0.00 | 0.00 | 0.00 | 93 | 1019.7 |
| 20260830100711 | 53 | 131 | 3.0 | 6.0 | 0.00 | 0.00 | 0.00 | 93 | 1019.7 |
| 20260830100210 | 53 | 134 | 4.0 | 5.0 | 0.00 | 0.00 | 0.00 | 93 | 1019.6 |
| 20260830095709 | 53 | 133 | 4.0 | 5.0 | 0.00 | 0.00 | 0.00 | 93 | 1019.6 |
| 20260830095209 | 53 | 134 | 3.0 | 4.0 | 0.00 | 0.00 | 0.00 | 93 | 1019.5 |
| 20260830094707 | 53 | 133 | 3.0 | 6.0 | 0.00 | 0.00 | 0.00 | 93 | 1019.6 |
| 20260830094209 | 53 | 133 | 4.0 | 6.0 | 0.00 | 0.00 | 0.00 | 93 | 1019.5 |
| 20260830093706 | 53 | 134 | 3.0 | 6.0 | 0.00 | 0.00 | 0.00 | 93 | 1019.6 |
| 20260830092704 | 53 | 135 | 4.0 | 6.0 | 0.00 | 0.00 | 0.00 | 93 | 1019.6 |
| 20260830092203 | 53 | 133 | 3.0 | 6.0 | 0.00 | 0.00 | 0.00 | 92 | 1019.6 |
| 20260830091201 | 54 | 133 | 3.0 | 5.0 | 0.00 | 0.00 | 0.00 | 92 | 1019.6 |
| 20260830084656 | 54 | 130 | 3.0 | 5.0 | 0.00 | 0.00 | 0.00 | 92 | 1019.6 |
| 20260830084155 | 54 | 133 | 3.0 | 4.0 | 0.00 | 0.00 | 0.00 | 92 | 1019.6 |
| 20260830083153 | 54 | 130 | 2.0 | 4.0 | 0.00 | 0.00 | 0.00 | 92 | 1019.7 |
| 20260830082652 | 54 | 131 | 3.0 | 5.0 | 0.00 | 0.00 | 0.00 | 92 | 1019.7 |
| 20260830082151 | 54 | 134 | 2.0 | 5.0 | 0.00 | 0.00 | 0.00 | 92 | 1019.7 |
| 20260830075145 | 55 | 128 | 0.0 | 2.0 | 0.00 | 0.00 | 0.00 | 91 | 1019.7 |
| 20260830073641 | 56 | 131 | 2.0 | 4.0 | 0.00 | 0.00 | 0.00 | 91 | 1019.8 |
| 20260830072640 | 56 | 128 | 3.0 | 4.0 | 0.00 | 0.00 | 0.00 | 91 | 1019.8 |
| 20260830072138 | 56 | 127 | 3.0 | 5.0 | 0.00 | 0.00 | 0.00 | 91 | 1019.7 |
| 20260830071637 | 56 | 124 | 3.0 | 5.0 | 0.00 | 0.00 | 0.00 | 91 | 1019.8 |
| 20260830071139 | 56 | 134 | 3.0 | 5.0 | 0.00 | 0.00 | 0.00 | 91 | 1019.7 |
| 20260830070636 | 56 | 137 | 3.0 | 4.0 | 0.00 | 0.00 | 0.00 | 90 | 1019.7 |
| 20260830070135 | 56 | 135 | 3.0 | 4.0 | 0.00 | 0.00 | 0.00 | 90 | 1019.8 |
| 20260830065633 | 56 | 127 | 1.0 | 4.0 | 0.00 | 0.00 | 0.00 | 90 | 1019.8 |
| 20260830065132 | 57 | 131 | 3.0 | 4.0 | 0.00 | 0.00 | 0.00 | 90 | 1019.7 |
| 20260830064631 | 57 | 124 | 2.0 | 5.0 | 0.00 | 0.00 | 0.00 | 90 | 1019.7 |
| 20260830064131 | 57 | 126 | 2.0 | 5.0 | 0.00 | 0.00 | 0.00 | 90 | 1019.7 |
| 20260830063629 | 57 | 135 | 2.0 | 5.0 | 0.00 | 0.00 | 0.00 | 90 | 1019.7 |
| 20260830062628 | 57 | 135 | 3.0 | 4.0 | 0.00 | 0.00 | 0.00 | 90 | 1019.7 |
| 20260830060122 | 58 | 127 | 3.0 | 4.0 | 0.00 | 0.00 | 0.00 | 89 | 1019.9 |
| 20260830055621 | 58 | 128 | 2.0 | 3.0 | 0.00 | 0.00 | 0.00 | 89 | 1019.9 |
| 20260830055120 | 58 | 124 | 2.0 | 4.0 | 0.00 | 0.00 | 0.00 | 89 | 1019.8 |
| 20260830054619 | 58 | 124 | 3.0 | 4.0 | 0.00 | 0.00 | 0.00 | 89 | 1019.9 |
| 20260830053117 | 58 | 127 | 2.0 | 5.0 | 0.00 | 0.00 | 0.00 | 89 | 1020.0 |
| 20260830052616 | 58 | 133 | 3.0 | 5.0 | 0.00 | 0.00 | 0.00 | 88 | 1020.0 |
| 20260830052115 | 59 | 137 | 4.0 | 5.0 | 0.00 | 0.00 | 0.00 | 88 | 1020.0 |
| 20260830051113 | 59 | 127 | 3.0 | 4.0 | 0.00 | 0.00 | 0.00 | 88 | 1020.1 |
| 20260830050612 | 59 | 137 | 2.0 | 4.0 | 0.00 | 0.00 | 0.00 | 88 | 1020.1 |
| 20260830050111 | 59 | 121 | 2.0 | 3.0 | 0.00 | 0.00 | 0.00 | 88 | 1020.2 |
| 20260830045610 | 59 | 124 | 3.0 | 5.0 | 0.00 | 0.00 | 0.00 | 88 | 1020.2 |
| 20260830044608 | 60 | 135 | 3.0 | 5.0 | 0.00 | 0.00 | 0.00 | 87 | 1020.1 |
| 20260830044107 | 60 | 128 | 3.0 | 3.0 | 0.00 | 0.00 | 0.00 | 87 | 1020.1 |
| 20260830043105 | 60 | 119 | 2.0 | 3.0 | 0.00 | 0.00 | 0.00 | 87 | 1020.1 |
| 20260830042604 | 60 | 117 | 2.0 | 3.0 | 0.00 | 0.00 | 0.00 | 87 | 1020.1 |
| 20260830041602 | 60 | 126 | 1.0 | 3.0 | 0.00 | 0.00 | 0.00 | 87 | 1019.9 |
| 20260830040600 | 61 | 109 | 1.0 | 2.0 | 0.00 | 0.00 | 0.00 | 87 | 1020.0 |
| 20260830040059 | 61 | 126 | 0.0 | 2.0 | 0.00 | 0.00 | 0.00 | 87 | 1019.9 |
| 20260830035057 | 61 | 128 | 1.0 | 2.0 | 0.00 | 0.00 | 0.00 | 87 | 1019.8 |
| 20260830034556 | 61 | 116 | 0.0 | 2.0 | 0.00 | 0.00 | 0.00 | 87 | 1019.8 |
| 20260830034055 | 61 | 91 | 0.0 | 2.0 | 0.00 | 0.00 | 0.00 | 87 | 1019.7 |
| 20260830033554 | 61 | 61 | 2.0 | 5.0 | 0.00 | 0.00 | 0.00 | 87 | 1019.7 |